timestamp,wind_dir_avg,wind_spd_avg,wind_spd_max_dir,wind_spd_gust,battery_voltage,lat,long
2020-01-01 00:04:01+00:00,108.0,1.84,106.0,2.78,12.57,47.59359,-54.27349
2020-01-01 00:14:01+00:00,139.0,2.56,144.0,3.17,12.57,47.59359,-54.27349
2020-01-01 00:24:01+00:00,140.0,2.12,150.0,2.69,12.57,47.59359,-54.27349
2020-01-01 00:34:01+00:00,128.0,1.88,128.0,2.59,12.57,47.59359,-54.27349
2020-01-01 00:44:01+00:00,163.0,2.68,165.0,3.39,12.57,47.59359,-54.27349
2020-01-01 00:54:01+00:00,122.0,1.8,107.0,2.39,12.57,47.59359,-54.27349
2020-01-01 01:04:01+00:00,124.0,1.51,141.0,2.59,12.57,47.59359,-54.27349
2020-01-01 01:14:01+00:00,110.0,2.48,133.0,3.5,12.57,47.59359,-54.27349
2020-01-01 01:24:01+00:00,115.0,2.56,130.0,4.13,12.57,47.59359,-54.27349
2020-01-01 01:34:01+00:00,136.0,4.48,133.0,5.0,12.57,47.59359,-54.27349
2020-01-01 01:44:01+00:00,128.0,4.66,121.0,6.75,12.57,47.59359,-54.27349
2020-01-01 01:54:01+00:00,132.0,4.27,134.0,5.18,12.57,47.59359,-54.27349
2020-01-01 02:04:01+00:00,144.0,4.73,137.0,6.27,12.57,47.59359,-54.27349
2020-01-01 02:14:01+00:00,157.0,3.94,165.0,4.81,12.49,47.59359,-54.27349
2020-01-01 02:24:01+00:00,159.0,4.41,158.0,5.19,12.49,47.59359,-54.27349
2020-01-01 02:34:01+00:00,165.0,4.67,158.0,5.78,12.49,47.59359,-54.27349
2020-01-01 02:44:01+00:00,138.0,5.65,131.0,7.26,12.49,47.59359,-54.27349
2020-01-01 02:54:01+00:00,137.0,5.98,138.0,7.88,12.49,47.59359,-54.27349
2020-01-01 03:04:01+00:00,160.0,4.97,163.0,5.51,12.49,47.59359,-54.27349
2020-01-01 03:14:01+00:00,151.0,3.89,148.0,4.54,12.49,47.59359,-54.27349
2020-01-01 03:24:01+00:00,147.0,5.41,149.0,6.89,12.49,47.59359,-54.27349
2020-01-01 03:34:01+00:00,163.0,7.13,156.0,7.75,12.49,47.59359,-54.27349
2020-01-01 03:44:01+00:00,191.0,5.33,197.0,6.81,12.49,47.59359,-54.27349
2020-01-01 03:54:01+00:00,176.0,5.56,177.0,7.13,12.49,47.59359,-54.27349
2020-01-01 04:04:01+00:00,178.0,5.87,176.0,7.11,12.49,47.59359,-54.27349
2020-01-01 04:14:01+00:00,177.0,4.77,179.0,5.26,12.49,47.59359,-54.27349
2020-01-01 04:24:01+00:00,190.0,5.57,195.0,6.38,12.49,47.59359,-54.27349
2020-01-01 04:34:01+00:00,178.0,5.33,179.0,6.02,12.49,47.59359,-54.27349
2020-01-01 04:44:01+00:00,166.0,4.45,161.0,5.17,12.49,47.59359,-54.27349
2020-01-01 04:54:01+00:00,165.0,4.82,155.0,5.63,12.49,47.59359,-54.27349
2020-01-01 05:04:01+00:00,164.0,5.18,163.0,5.73,12.49,47.59359,-54.27349
2020-01-01 05:14:01+00:00,167.0,6.09,167.0,6.89,12.41,47.59359,-54.27349
2020-01-01 05:24:01+00:00,187.0,5.5,183.0,6.04,12.41,47.59359,-54.27349
2020-01-01 05:34:01+00:00,175.0,6.11,171.0,6.97,12.41,47.59359,-54.27349
2020-01-01 05:44:01+00:00,181.0,6.42,178.0,7.64,12.41,47.59359,-54.27349
2020-01-01 05:54:01+00:00,175.0,6.26,182.0,7.2,12.41,47.59359,-54.27349
2020-01-01 06:04:01+00:00,191.0,6.62,194.0,7.86,12.41,47.59359,-54.27349
2020-01-01 06:14:01+00:00,188.0,7.73,181.0,9.75,12.41,47.59359,-54.27349
2020-01-01 06:24:01+00:00,168.0,5.37,164.0,6.17,12.41,47.59359,-54.27349
2020-01-01 06:34:01+00:00,180.0,5.84,180.0,6.88,12.41,47.59359,-54.27349
2020-01-01 06:44:01+00:00,173.0,6.74,167.0,8.23,12.41,47.59359,-54.27349
2020-01-01 06:54:01+00:00,166.0,6.45,163.0,7.11,12.41,47.59359,-54.27349
2020-01-01 07:04:01+00:00,172.0,5.77,172.0,6.46,12.41,47.59359,-54.27349
2020-01-01 07:14:01+00:00,174.0,5.56,175.0,6.51,12.41,47.59359,-54.27349
2020-01-01 07:24:01+00:00,185.0,6.67,184.0,7.7,12.41,47.59359,-54.27349
2020-01-01 07:34:01+00:00,175.0,7.01,181.0,7.79,12.41,47.59359,-54.27349
2020-01-01 07:44:01+00:00,170.0,7.53,170.0,8.16,12.41,47.59359,-54.27349
2020-01-01 07:54:01+00:00,170.0,6.69,159.0,7.72,12.41,47.59359,-54.27349
2020-01-01 08:04:01+00:00,183.0,6.75,188.0,7.47,12.41,47.59359,-54.27349
2020-01-01 08:14:01+00:00,168.0,6.52,174.0,7.38,12.41,47.59359,-54.27349
2020-01-01 08:24:01+00:00,161.0,7.72,162.0,8.81,12.41,47.59359,-54.27349
2020-01-01 08:34:01+00:00,166.0,6.92,170.0,7.86,12.41,47.59359,-54.27349
2020-01-01 08:44:01+00:00,157.0,6.77,166.0,7.55,12.41,47.59359,-54.27349
2020-01-01 08:54:01+00:00,166.0,7.55,164.0,8.43,12.41,47.59359,-54.27349
2020-01-01 09:04:01+00:00,172.0,7.26,178.0,8.24,12.41,47.59359,-54.27349
2020-01-01 09:14:01+00:00,164.0,8.01,166.0,9.29,12.41,47.59359,-54.27349
2020-01-01 09:24:01+00:00,158.0,8.8,155.0,9.53,12.41,47.59359,-54.27349
2020-01-01 09:34:01+00:00,168.0,8.69,166.0,10.57,12.41,47.59359,-54.27349
2020-01-01 09:44:01+00:00,166.0,8.19,166.0,9.44,12.41,47.59359,-54.27349
2020-01-01 09:54:01+00:00,160.0,8.16,157.0,9.64,12.41,47.59359,-54.27349
2020-01-01 10:04:01+00:00,169.0,7.99,162.0,9.01,12.41,47.59359,-54.27349
2020-01-01 10:14:01+00:00,166.0,8.22,175.0,9.17,12.41,47.59359,-54.27349
2020-01-01 10:24:01+00:00,161.0,8.1,163.0,9.29,12.41,47.59359,-54.27349
2020-01-01 10:34:01+00:00,153.0,8.06,156.0,9.33,12.41,47.59359,-54.27349
2020-01-01 10:44:01+00:00,156.0,9.27,152.0,10.44,12.41,47.59359,-54.27349
2020-01-01 10:54:01+00:00,161.0,8.45,162.0,9.51,12.41,47.59359,-54.27349
2020-01-01 11:04:01+00:00,164.0,8.48,160.0,9.1,12.41,47.59359,-54.27349
2020-01-01 11:14:01+00:00,159.0,6.55,151.0,7.99,12.41,47.59359,-54.27349
2020-01-01 11:24:01+00:00,162.0,7.57,163.0,8.7,12.41,47.59359,-54.27349
2020-01-01 11:34:01+00:00,152.0,7.04,151.0,7.8,12.41,47.59359,-54.27349
2020-01-01 11:44:01+00:00,150.0,11.78,155.0,13.42,12.41,47.59359,-54.27349
2020-01-01 11:54:01+00:00,158.0,11.84,154.0,13.46,12.41,47.59359,-54.27349
2020-01-01 12:04:01+00:00,145.0,9.58,147.0,11.2,12.41,47.59359,-54.27349
2020-01-01 12:14:01+00:00,145.0,8.35,148.0,9.99,12.41,47.59359,-54.27349
2020-01-01 12:24:01+00:00,147.0,7.37,147.0,9.14,12.41,47.59359,-54.27349
2020-01-01 12:34:01+00:00,147.0,10.78,143.0,12.77,12.41,47.59359,-54.27349
2020-01-01 12:44:01+00:00,148.0,12.17,149.0,13.48,12.41,47.59359,-54.27349
2020-01-01 12:54:01+00:00,141.0,8.89,137.0,10.18,12.41,47.59359,-54.27349
2020-01-01 13:04:01+00:00,145.0,7.94,142.0,9.64,12.41,47.59359,-54.27349
2020-01-01 13:14:01+00:00,144.0,10.05,145.0,12.1,12.41,47.59359,-54.27349
2020-01-01 13:24:01+00:00,145.0,7.96,153.0,10.12,12.41,47.59359,-54.27349
2020-01-01 13:34:01+00:00,135.0,7.96,128.0,9.28,12.41,47.59359,-54.27349
2020-01-01 13:44:01+00:00,148.0,7.43,147.0,8.45,12.41,47.59359,-54.27349
2020-01-01 13:54:01+00:00,148.0,8.21,149.0,9.4,12.41,47.59359,-54.27349
2020-01-01 14:04:01+00:00,152.0,7.17,150.0,9.08,12.41,47.59359,-54.27349
2020-01-01 14:14:01+00:00,150.0,6.96,146.0,8.13,12.41,47.59359,-54.27349
2020-01-01 14:24:01+00:00,151.0,5.48,144.0,6.53,12.41,47.59359,-54.27349
2020-01-01 14:34:01+00:00,168.0,4.64,164.0,5.32,12.41,47.59359,-54.27349
2020-01-01 14:44:01+00:00,147.0,4.81,155.0,5.99,12.41,47.59359,-54.27349
2020-01-01 14:54:01+00:00,141.0,6.0,148.0,6.85,12.41,47.59359,-54.27349
2020-01-01 15:04:01+00:00,141.0,6.24,140.0,7.21,12.41,47.59359,-54.27349
2020-01-01 15:14:01+00:00,138.0,6.32,139.0,7.62,12.41,47.59359,-54.27349
2020-01-01 15:24:01+00:00,139.0,6.1,143.0,7.29,12.41,47.59359,-54.27349
2020-01-01 15:34:01+00:00,142.0,8.9,136.0,10.25,12.41,47.59359,-54.27349
2020-01-01 15:44:01+00:00,136.0,7.61,137.0,10.55,12.41,47.59359,-54.27349
2020-01-01 15:54:01+00:00,135.0,8.35,135.0,9.77,12.41,47.59359,-54.27349
2020-01-01 16:04:01+00:00,134.0,7.86,135.0,10.15,12.41,47.59359,-54.27349
2020-01-01 16:14:01+00:00,136.0,8.03,139.0,9.51,12.65,47.59359,-54.27349
2020-01-01 16:24:01+00:00,133.0,7.99,127.0,10.95,12.65,47.59359,-54.27349
2020-01-01 16:34:01+00:00,135.0,7.21,137.0,8.56,12.65,47.59359,-54.27349
2020-01-01 16:44:01+00:00,121.0,3.75,133.0,6.32,12.65,47.59359,-54.27349
2020-01-01 16:54:01+00:00,119.0,4.04,141.0,6.51,12.65,47.59359,-54.27349
2020-01-01 17:04:01+00:00,116.0,4.4,116.0,6.03,12.65,47.59359,-54.27349
2020-01-01 17:14:01+00:00,108.0,3.78,109.0,6.13,12.57,47.59359,-54.27349
2020-01-01 17:24:01+00:00,124.0,4.64,120.0,6.54,12.57,47.59359,-54.27349
2020-01-01 17:34:01+00:00,132.0,5.54,136.0,7.66,12.57,47.59359,-54.27349
2020-01-01 17:44:01+00:00,146.0,5.52,142.0,6.95,12.57,47.59359,-54.27349
2020-01-01 17:54:01+00:00,129.0,3.96,132.0,5.6,12.57,47.59359,-54.27349
2020-01-01 18:04:01+00:00,132.0,5.13,133.0,5.99,12.57,47.59359,-54.27349
2020-01-01 18:14:01+00:00,134.0,3.55,144.0,4.56,12.65,47.59359,-54.27349
2020-01-01 18:24:01+00:00,131.0,4.27,131.0,4.92,12.65,47.59359,-54.27349
2020-01-01 18:34:01+00:00,143.0,4.56,150.0,5.66,12.65,47.59359,-54.27349
2020-01-01 18:44:01+00:00,164.0,7.51,164.0,9.46,12.65,47.59359,-54.27349
2020-01-01 18:54:01+00:00,149.0,5.93,153.0,6.64,12.65,47.59359,-54.27349
2020-01-01 19:04:01+00:00,130.0,2.98,144.0,4.61,12.65,47.59359,-54.27349
2020-01-01 19:14:01+00:00,151.0,7.38,156.0,9.82,12.57,47.59359,-54.27349
2020-01-01 19:24:01+00:00,164.0,9.56,163.0,10.62,12.57,47.59359,-54.27349
2020-01-01 19:34:01+00:00,139.0,6.46,137.0,9.68,12.57,47.59359,-54.27349
2020-01-01 19:44:01+00:00,149.0,7.44,152.0,10.77,12.57,47.59359,-54.27349
2020-01-01 19:54:01+00:00,166.0,6.35,170.0,7.7,12.57,47.59359,-54.27349
2020-01-01 20:04:01+00:00,169.0,12.3,173.0,14.11,12.57,47.59359,-54.27349
2020-01-01 20:14:01+00:00,169.0,10.61,164.0,12.41,12.41,47.59359,-54.27349
2020-01-01 20:24:01+00:00,167.0,10.74,168.0,12.17,12.41,47.59359,-54.27349
2020-01-01 20:34:01+00:00,173.0,11.41,164.0,13.53,12.41,47.59359,-54.27349
2020-01-01 20:44:01+00:00,177.0,13.78,186.0,15.74,12.41,47.59359,-54.27349
2020-01-01 20:54:01+00:00,181.0,13.11,183.0,15.72,12.41,47.59359,-54.27349
2020-01-01 21:04:01+00:00,182.0,13.21,187.0,15.08,12.41,47.59359,-54.27349
2020-01-01 21:14:01+00:00,184.0,14.87,187.0,17.26,12.41,47.59359,-54.27349
2020-01-01 21:24:01+00:00,192.0,12.99,196.0,15.2,12.41,47.59359,-54.27349
2020-01-01 21:34:01+00:00,200.0,13.93,196.0,17.3,12.41,47.59359,-54.27349
2020-01-01 21:44:01+00:00,212.0,12.69,207.0,15.26,12.41,47.59359,-54.27349
2020-01-01 21:54:01+00:00,218.0,15.4,218.0,17.75,12.41,47.59359,-54.27349
2020-01-01 22:04:01+00:00,221.0,12.99,215.0,15.52,12.41,47.59359,-54.27349
2020-01-01 22:14:01+00:00,221.0,12.68,222.0,14.54,12.41,47.59359,-54.27349
2020-01-01 22:24:01+00:00,230.0,13.22,232.0,14.91,12.41,47.59359,-54.27349
2020-01-01 22:34:01+00:00,233.0,11.4,237.0,13.67,12.41,47.59359,-54.27349
2020-01-01 22:44:01+00:00,231.0,12.33,231.0,14.4,12.41,47.59359,-54.27349
2020-01-01 22:54:01+00:00,228.0,11.39,222.0,12.43,12.41,47.59359,-54.27349
2020-01-01 23:04:01+00:00,226.0,12.04,227.0,13.06,12.41,47.59359,-54.27349
2020-01-01 23:14:01+00:00,228.0,12.72,226.0,14.83,12.41,47.59359,-54.27349
2020-01-01 23:24:01+00:00,230.0,12.29,230.0,13.79,12.41,47.59359,-54.27349
2020-01-01 23:34:01+00:00,229.0,10.89,231.0,12.27,12.41,47.59359,-54.27349
2020-01-01 23:44:01+00:00,229.0,11.74,228.0,13.84,12.41,47.59359,-54.27349
2020-01-01 23:54:01+00:00,225.0,11.08,223.0,12.46,12.41,47.59359,-54.27349
